Weather History for Ashland, WI

Change the Weather History Date:

Monday, February 11, 2013

  Actual Average Record
Temperature  
Mean Temperature 26 °F -  
Max Temperature 32 °F 25 °F 47 °F (1977)
Min Temperature 21 °F 3 °F -27 °F (1988)
Degree Days  
Heating Degree Days 38    
Moisture  
Dew Point 25 °F    
Average Humidity 87    
Maximum Humidity 100    
Minimum Humidity 75    
Precipitation  
Precipitation 0.00 in - - ()
Sea Level Pressure  
Sea Level Pressure 29.55 in    
Wind  
Wind Speed 10 mph (NNW)    
Max Wind Speed 16 mph    
Max Gust Speed 22 mph    
Visibility 6 miles    
Events Snow    
Averages and records for this station are not official NWS values.
T = Trace of Precipitation, MM = Missing Value Source: NWS Daily Summary

Daily Weather History Graph

Daily Weather History Graph

Search for Another Location

Airport:

Trip Planner

Search our weather history database for the weather conditions in past years. The results will help you decide how hot, cold, wet, or windy it might be!

Date:

Astronomy

Feb. 11, 2013 Rise Set
Actual Time 7:13 AM CST 5:23 PM CST
Civil Twilight 6:41 AM CST 5:54 PM CST
Nautical Twilight 6:06 AM CST 6:30 PM CST
Astronomical Twilight 5:31 AM CST 7:05 PM CST
Moon 7:29 AM CST (2/11) 7:31 PM CST (2/11)
Length of Visible Light 11h 12m
Length of Day
10h 10m
Waxing Crescent, 3% of the Moon is Illuminated
Feb 11
Waxing Crescent
Feb 17
First Quarter
Feb 25
Full
Mar 4
Last Quarter
Mar 11
New

Hourly Weather History & Observations

Time (CST) Temp. Windchill Dew Point Humidity Pressure Visibility Wind Dir Wind Speed Gust Speed Precip Events Conditions
12:29 AM 32.0 °F 23.6 °F 30.2 °F 93% 29.31 in 2.0 mi NE 10.4 mph - 0.00 in Snow Light Snow
12:45 AM 32.0 °F 24.8 °F 30.2 °F 93% 29.30 in 4.0 mi NNE 8.1 mph - 0.00 in Snow Light Snow
12:53 AM 32.0 °F 23.6 °F 30.0 °F 92% 29.34 in 4.0 mi North 10.4 mph - 0.00 in   Overcast
1:10 AM 30.2 °F 20.8 °F 30.2 °F 100% 29.30 in 2.0 mi NNE 11.5 mph - N/A   Overcast
1:50 AM 32.0 °F 24.2 °F 30.2 °F 93% 29.30 in 1.5 mi NNE 9.2 mph - 0.00 in Snow Light Snow
1:53 AM 32.0 °F 23.6 °F 30.0 °F 92% 29.34 in 1.5 mi NNE 10.4 mph - 0.00 in Snow Light Snow
2:22 AM 32.0 °F 23.0 °F 30.2 °F 93% 29.31 in 2.5 mi North 11.5 mph - 0.00 in Snow Light Snow
2:36 AM 32.0 °F 23.6 °F 30.2 °F 93% 29.31 in 4.0 mi North 10.4 mph - 0.00 in   Overcast
2:53 AM 32.0 °F 24.8 °F 30.0 °F 92% 29.34 in 6.0 mi North 8.1 mph - 0.00 in   Overcast
3:37 AM 32.0 °F 26.4 °F 30.2 °F 93% 29.31 in 7.0 mi NNW 5.8 mph - N/A   Overcast
3:53 AM 32.0 °F 25.6 °F 30.0 °F 92% 29.35 in 8.0 mi NNW 6.9 mph - N/A   Overcast
4:29 AM 30.2 °F 19.8 °F 30.2 °F 100% 29.34 in 3.0 mi North 13.8 mph - 0.00 in Snow Light Snow
4:37 AM 30.2 °F 19.3 °F 28.4 °F 93% 29.34 in 2.0 mi North 15.0 mph - 0.00 in Snow Light Snow
4:44 AM 30.2 °F 19.8 °F 28.4 °F 93% 29.35 in 1.0 mi North 13.8 mph - 0.00 in Snow Light Snow
4:53 AM 30.9 °F 21.2 °F 28.9 °F 92% 29.39 in 1.0 mi North 12.7 mph - 0.00 in Snow Light Snow
5:14 AM 30.2 °F 20.8 °F 28.4 °F 93% 29.37 in 2.0 mi North 11.5 mph - 0.00 in Snow Light Snow
5:44 AM 30.2 °F 19.8 °F 28.4 °F 93% 29.39 in 2.5 mi North 13.8 mph - 0.00 in Snow Light Snow
5:53 AM 30.0 °F 21.7 °F 28.0 °F 92% 29.43 in 2.0 mi NNW 9.2 mph - 0.00 in Snow Light Snow
5:57 AM 30.2 °F 21.3 °F 28.4 °F 93% 29.40 in 1.8 mi NNW 10.4 mph - 0.00 in Snow Light Snow
6:04 AM 30.2 °F 20.2 °F 28.4 °F 93% 29.40 in 2.0 mi NNW 12.7 mph - 0.00 in Snow Light Snow
6:09 AM 30.2 °F 20.2 °F 28.4 °F 93% 29.41 in 3.0 mi NNW 12.7 mph - 0.00 in Snow Light Snow
6:21 AM 30.2 °F 18.9 °F 26.6 °F 86% 29.42 in 10.0 mi NNW 16.1 mph 21.9 mph 0.00 in   Overcast
6:34 AM 30.2 °F 19.8 °F 26.6 °F 86% 29.43 in 10.0 mi NNW 13.8 mph - 0.00 in   Overcast
6:53 AM 28.9 °F 19.2 °F 26.1 °F 89% 29.48 in 10.0 mi NNW 11.5 mph 20.7 mph 0.00 in   Overcast
7:53 AM 28.0 °F 18.1 °F 24.1 °F 85% 29.53 in 10.0 mi NNW 11.5 mph - N/A   Overcast
8:53 AM 27.0 °F 16.7 °F 23.0 °F 85% 29.56 in 10.0 mi NW 11.5 mph - N/A   Overcast
9:30 AM 26.6 °F 17.5 °F 23.0 °F 86% 29.55 in 10.0 mi NW 9.2 mph - N/A   Overcast
9:53 AM 27.0 °F 17.3 °F 21.9 °F 81% 29.60 in 10.0 mi NW 10.4 mph - N/A   Overcast
10:53 AM 27.0 °F 18.0 °F 21.9 °F 81% 29.64 in 9.0 mi NW 9.2 mph - 0.00 in Snow Light Snow
11:53 AM 26.1 °F 16.8 °F 21.0 °F 81% 29.67 in 10.0 mi NW 9.2 mph 17.3 mph N/A   Overcast
12:53 PM 27.0 °F 16.7 °F 19.9 °F 75% 29.69 in 10.0 mi WNW 11.5 mph 17.3 mph N/A   Overcast
1:53 PM 27.0 °F 16.7 °F 21.0 °F 78% 29.71 in 6.0 mi WNW 11.5 mph 18.4 mph 0.00 in Snow Light Snow
2:53 PM 26.1 °F 16.2 °F 19.9 °F 78% 29.76 in 7.0 mi WNW 10.4 mph 18.4 mph 0.00 in Snow Light Snow
3:35 PM 24.8 °F 11.9 °F 19.4 °F 80% 29.75 in 2.5 mi WNW 16.1 mph - 0.00 in Snow Light Snow
3:44 PM 24.8 °F 12.9 °F 19.4 °F 80% 29.75 in 5.0 mi WNW 13.8 mph 21.9 mph 0.00 in Snow Light Snow
3:53 PM 25.0 °F 14.2 °F 19.0 °F 78% 29.79 in 5.0 mi WNW 11.5 mph 19.6 mph 0.00 in Snow Light Snow
4:53 PM 23.0 °F 11.7 °F 18.0 °F 81% 29.83 in 10.0 mi WNW 11.5 mph 20.7 mph 0.00 in   Mostly Cloudy
5:53 PM 24.1 °F 18.2 °F 19.0 °F 81% 29.86 in 10.0 mi WNW 4.6 mph - N/A   Overcast
6:53 PM 24.1 °F 15.2 °F 17.1 °F 75% 29.90 in 10.0 mi NW 8.1 mph - N/A   Overcast
7:53 PM 23.0 °F 14.7 °F 17.1 °F 78% 29.92 in 10.0 mi NW 6.9 mph - N/A   Overcast
8:53 PM 23.0 °F 13.9 °F 17.1 °F 78% 29.94 in 10.0 mi NNW 8.1 mph - N/A   Overcast
9:53 PM 21.9 °F 14.5 °F 16.0 °F 78% 29.96 in 10.0 mi NW 5.8 mph - N/A   Overcast
10:53 PM 21.9 °F 17.2 °F 16.0 °F 78% 29.97 in 10.0 mi WNW 3.5 mph - N/A   Overcast
11:53 PM 21.0 °F 16.2 °F 17.1 °F 85% 29.98 in 9.0 mi WSW 3.5 mph - N/A   Overcast